STARLINK-5123, 53979

Orbit data source: Space-Track

STARLINK-5123, 53979 is a payload satellite owned by SpaceX/Seattle (US) in LEO that was launched on Wed, 05 Oct 2022 UTC via an FALCON 9 launch vehicle from the Air Force Western Test Range (AFWTR). Payload-class satellites include a variety of spacecraft equipped with specific instruments for various scientific and technological missions. These include communications satellites like Starlink; space stations such as the ISS; scientific satellites like the Hubble; Earth observation satellites from companies like Planet Labs, Umbra, and HawkEye 360; GPS; miniature CubeSats for education and research; and military/defense satellites.

Loading next visibility...
Identifier
53979, 2022-125R
Orbit
LEO
Country
Flag of USUS
Related business
Manufacturer
SpaceX/Seattle
Mission
Operational Commercial Communications
Bus & Motor
STARLINK, Unknown motor
Mass
305 kg wet, ~290 kg dry
Launch date (UTC)
2022-10-05 (4 years ago)
Launch vehicle
FALCON 9
Launch site
Air Force Western Test Range (AFWTR)
Object type
Payload
Rocket body
Debris
Shape & HBR
Box + 1 Pan, 10.1 m
Radar Cross Section
13.562 m², Large (>1 m²)

Expand to show TLE details & history
Last TLE update: 3 days ago

TLE from 3 days ago
0 STARLINK-5123
1 53979U 22125R   26170.57535915  .00000325  00000-0  38526-4 0  9999
2 53979  53.1617 121.6242 0001454  79.4881 280.6274 15.08832508204776
Epoch: 2026-06-19T13:48Z
TLE epoch observation values (Epoch: 2026-06-19T13:48:31.030Z)
Latitude
-0.00004°
Longitude
6.69251°
Altitude
540.472 km
Speed
7.593 km/s
True Right ascension
08h 06m 29s
True Declination
0° 00' 00"
Sunlit
Object was in daylight at epoch
Visualization orbit readout
Latitude
Unknown
Longitude
Unknown
Altitude
Unknown
Speed
Unknown
Apparent Right ascension
Unknown
Apparent Declination
Unknown
Sunlit
N/A
Visualization observer readout
Local Sidereal Time
23:08:20
Azimuth
Unknown
Elevation
Unknown
Doppler factor
Unknown
Orbital elements
Apogee altitude
541.026 km
Perigee altitude
539.014 km
Semi-major axis
6,918.157 km
Eccentricity
0.00015
Inclination
53.1617°
RAAN
121.6242°
Arg. of periapsis
79.4881°
True anomaly
280.61102°
Mean anomaly
280.6274°
Eccentric anomaly
280.61921°
Mean motion
3.77188 °/min
Orbital period
95.44 mins
BSTAR
0.000038526
Loading maneuver chart data...
Computing Atmospheric mass density...

Documentation

Showing up to 5 results
|